Home > Weather > Denver > Past weeks

Flag for USA Past Weather in Denver, Colorado, USA — Yesterday and Last 2 Weeks

Now
57 °F

Passing clouds.


Feels Like: 55 °F
Forecast: 59 / 87 °F
Wind: 12 mph from South

Location: Buckley Air Force Base

Current Time: Jun 26, 2016 at 6:03:09 AM

Latest Report: Jun 26, 2016 at 4:58 AM


Visibility: 10 mi

Pressure: 30.03 "Hg (24.85 "Hg at 1593m altitude)

Humidity: 75%

Dew Point: 49 °F

Location of DenverLocation

Past Weather in Denver — Graph

°F

Denver Temperature Yesterday

Maximum temperature yesterday: 82 °F (at 10:58 AM)
Minimum temperature yesterday: 61 °F (at 9:58 PM)
Average temperature yesterday: 72 °F

High & Low Weather Summary for the Past Weeks

 TemperatureHumidityPressure
High97 °F (Jun 21, 2:58 PM)100% (Jun 13, 1:58 AM)30.26 "Hg (Jun 13, 1:58 AM)
Low50 °F (Jun 14, 5:58 AM)10% (Jun 16, 1:58 PM)29.65 "Hg (Jun 15, 7:58 PM)
Average72 °F50%29.91 "Hg
* Reported Jun 11 3:58 AM — Jun 26 3:58 AM, Denver, Weather by CustomWeather, © 2016

Note: Actual official high and low records may vary slightly from our data, if they occured in-between our weather recording intervals... More about our weather records

Advertising

Denver Weather History for the Previous 24 Hours

Scroll right to see more
 ConditionsComfort  
Time TempWeatherWind HumidityBarometerVisibility
3:58 AM
Sun, Jun 26
60 °FPassing clouds.10 mph68%30.03 "Hg10 mi
2:58 AM62 °FPassing clouds.13 mph64%30.03 "Hg10 mi
1:58 AM60 °FPassing clouds.7 mph71%30.06 "Hg10 mi
12:58 AM63 °FPassing clouds.9 mph63%30.06 "Hg10 mi
11:58 PM
Sat, Jun 25
65 °FPassing clouds.13 mph60%30.04 "Hg10 mi
10:58 PM62 °FPassing clouds.10 mph67%30.05 "Hg10 mi
9:58 PM61 °FPassing clouds.9 mph71%30.03 "Hg10 mi
8:58 PM64 °FPassing clouds.9 mph66%29.98 "Hg10 mi
7:58 PM72 °FScattered clouds.9 mph50%29.96 "Hg10 mi
6:58 PM77 °FScattered clouds.6 mph37%29.93 "Hg10 mi
5:58 PM72 °FPartly sunny.16 mph46%29.93 "Hg10 mi
4:58 PM76 °FPartly sunny.17 mph36%29.94 "Hg10 mi
3:58 PM79 °FBroken clouds.17 mph31%29.94 "Hg10 mi
2:58 PM75 °FPartly sunny.14 mph36%29.93 "Hg10 mi
1:58 PM81 °FBroken clouds.13 mph32%29.90 "Hg10 mi
12:58 PM81 °FBroken clouds.12 mph29%29.90 "Hg10 mi
11:58 AM80 °FBroken clouds.8 mph26%29.90 "Hg10 mi
10:58 AM82 °FBroken clouds.10 mph28%29.90 "Hg10 mi
9:58 AM78 °FBroken clouds.6 mph34%29.89 "Hg10 mi
8:58 AM78 °FBroken clouds.3 mph32%29.89 "Hg10 mi
7:58 AM73 °FBroken clouds.3 mph47%29.88 "Hg10 mi
6:58 AM66 °FPartly sunny.3 mph71%29.88 "Hg10 mi
Weather by CustomWeather, © 2016

See weather overviewHow to use our weather pages